CAPE
0 1 1 0 16 11 5 17 0 0 0 14 31 26 13 5 1 3 6 0 0 0 0 0 1 7 8 8 7 3 3 6 10 15 26 37 52 71
3 3 3 7 8 7 5 2 11 23 5 4 18 12 7 11 23 20 16 11 3 0 0 0 0 2 0 0 2 0 0 0 0 0 0 0 5 8
0 7 11 16 25 25 16 6 0 1 11 3 2 10 10 19 33 23 19 14 14 7 0 0 4 6 0 0 0 0 0 0 0 0 0 0 1 1
0 10 12 7 5 9 8 3 0 2 7 0 0 8 12 15 17 25 4 7 15 1 1 0 0 0 0 0 0 0 0 0 0 0 0 0 0 0
0 0 0 1 0 0 0 0 0 0 2 2 0 0 9 3 2 1 6 0 0 0 0 0 0 0 0 0 0 0 0 0 0 0 0 0 0 0
1 0 0 0 0 0 0 0 0 0 3 1 0 0 0 0 0 0 0 0 0 0 0 0 0 1 3 3 3 4 1 1 2 2 1 1 0 1
1 0 0 0 0 0 0 0 0 0 0 0 0 0 0 0 0 0 0 5 0 0 2 4 4 6 7 6 6 4 1 2 2 1 1 1 1 2
1 1 0 0 0 0 0 0 0 0 0 0 0 0 0 0 0 0 0 0 0 1 0 2 2 9 6 3 3 2 2 2 3 4 3 2 0 1
0 0 0 1 0 0 1 0 0 0 0 0 0 0 0 2 4 0 1 2 1 0 0 0 5 8 2 2 2 2 2 2 3 2 1 1 1 1
8 8 7 6 3 3 2 2 8 5 5 5 5 10 6 3 1 2 2 3 1 0 1 0 2 7 1 0 1 2 1 1 1 1 1 0 1 1
6 5 4 5 1 3 1 3 7 12 7 7 6 4 2 2 1 2 0 0 1 3 1 3 4 3 1 2 1 2 1 1 1 1 1 0 0 0
6 3 3 2 0 2 4 3 5 3 2 1 1 0 0 0 0 0 0 0 0 1 1 1 1 1 1 0 0 0 0 0 0 0 0 0 0 0
3 5 2 3 1 0 0 0 1 2 1 1 1 0 0 0 0 0 0 0 0 2 0 0 0 0 0 0 0 0 0 0 0 0 0 0 0 0
3 1 1 2 1 1 0 0 1 1 1 0 0 0 0 0 0 0 0 0 0 0 0 0 0 0 0 0 0 0 0 0 0 0 0 0 0 0
1 1 1 0 0 0 0 0 0 0 0 0 0 0 0 0 0 0 0 0 0 0 0 0 0 0 0 0 0 0 0 0 0 0 0 0 0 0
0 0 0 0 0 0 0 0 0 0 0 0 0 0 0 0 0 0 0 0 0 0 0 0 0 0 0 0 0 0 0 0 0 0 0 0 0 0
0 0 0 0 0 0 0 0 0 0 0 0 0 0 0 0 0 0 0 0 0 0 0 0 0 0 0 0 0 0 0 0 0 0 0 0 0 0
0 0 0 0 0 0 0 0 0 0 0 0 0 0 0 0 0 0 0 0 0 0 0 0 0 0 0 0 0 0 0 0 0 0 0 0 0 0
0 0 0 0 0 0 0 0 0 0 0 0 0 0 0 0 0 0 0 0 0 0 0 0 0 0 0 0 0 0 0 0 0 0 0 0 0 0
0 0 0 0 0 0 0 0 0 0 0 0 0 0 0 0 0 0 0 0 0 0 0 0 0 0 0 0 0 0 0 0 0 0 0 0 0 0
0 0 0 0 0 0 0 0 0 0 0 0 0 0 0 0 0 0 0 0 0 0 0 0 0 0 0 0 0 0 0 0 0 0 0 0 0 0
0 0 0 0 0 0 0 0 0 0 0 0 0 0 0 0 0 0 0 0 0 0 0 0 0 0 0 0 0 0 0 0 0 0 0 0 0 0
0 0 0 0 0 0 0 0 0 0 0 0 0 0 0 0 0 0 0 0 0 0 0 0 0 0 0 0 0 0 0 0 0 0 0 0 0 0
CIN
-25 -21 -21 -0 -25 -35 -46 -37 -0 -0 -0 -32 -34 -77 -79 -100 -16 -138 -133 -21 -0 -0 -0 -0 -153 -170 -162 -167 -154 -155 -117 -129 -123 -99 -81 -74 -68 -69
-3 -5 -11 -31 -50 -54 -66 -72 -69 -27 -12 -40 -30 -40 -66 -84 -93 -103 -113 -109 -97 -0 -0 -0 -40 -191 -64 -8 -133 -34 -0 -0 -0 -0 -0 -83 -149 -140
-7 -8 -11 -27 -31 -42 -69 -80 -25 -19 -18 -48 -50 -42 -39 -38 -49 -65 -67 -83 -85 -101 -83 -0 -151 -166 -122 -0 -0 -0 -0 -0 -0 -0 -0 -17 -58 -50
-0 -27 -25 -26 -32 -47 -51 -50 -47 -14 -21 -2 -4 -41 -35 -50 -36 -41 -54 -66 -57 -3 -98 -0 -0 -0 -10 -11 -0 -0 -0 -0 -0 -0 -0 -0 -0 -0
-0 -0 -0 -22 -0 -0 -0 -0 -0 -7 -27 -6 -0 -0 -65 -57 -60 -56 -82 -0 -0 -0 -0 -0 -0 -0 -0 -0 -0 -0 -0 -0 -0 -0 -0 -0 -0 -0
-0 -0 -0 -0 -0 -0 -0 -0 -0 -2 -15 -5 -0 -0 -0 -0 -0 -0 -0 -0 -0 -0 -0 -0 -0 -0 -0 -0 -0 -0 -0 -0 -0 -0 -0 -0 -0 -0
-0 -0 -0 -0 -0 -0 -0 -0 -0 -0 -0 -0 -0 -0 -0 -2 -0 -0 -0 -46 -0 -0 -0 -0 -0 -0 -0 -0 -0 -0 -0 -0 -0 -0 -0 -0 -0 -0
-0 -0 -0 -0 -0 -0 -0 -0 -0 -0 -0 -0 -0 -0 -0 -0 -0 -0 -0 -0 -0 -0 -0 -0 -0 -0 -0 -0 -0 -0 -0 -0 -0 -0 -0 -0 -0 -0
-0 -0 -0 -0 -0 -0 -0 -0 -0 -0 -0 -0 -0 -0 -0 -0 -0 -0 -0 -0 -0 -0 -0 -0 -0 -0 -0 -0 -0 -0 -0 -0 -0 -0 -0 -0 -0 -0
-0 -0 -0 -0 -0 -0 -0 -0 -0 -0 -0 -0 -0 -0 -0 -0 -0 -0 -0 -0 -0 -0 -0 -0 -0 -0 -0 -0 -0 -0 -0 -0 -0 -0 -0 -0 -0 -0
-0 -0 -0 -0 -0 -0 -0 -0 -0 -0 -0 -0 -0 -0 -0 -0 -0 -0 -0 -0 -0 -0 -0 -0 -0 -0 -0 -0 -0 -0 -0 -0 -0 -0 -0 -0 -0 -0
-0 -0 -0 -0 -0 -0 -0 -0 -0 -0 -0 -0 -0 -0 -0 -0 -0 -0 -0 -0 -0 -0 -0 -0 -0 -0 -0 -0 -0 -0 -0 -0 -0 -0 -0 -0 -0 -0
-0 -0 -0 -0 -0 -0 -0 -0 -0 -0 -0 -0 -0 -0 -0 -0 -0 -0 -0 -0 -0 -0 -0 -0 -0 -0 -0 -0 -0 -0 -0 -0 -0 -0 -0 -0 -0 -0
-0 -0 -0 -0 -0 -0 -0 -0 -0 -0 -0 -0 -0 -0 -0 -0 -0 -0 -0 -0 -0 -0 -0 -0 -0 -0 -0 -0 -0 -0 -0 -0 -0 -0 -0 -0 -0 -0
-0 -0 -0 -0 -0 -0 -0 -0 -0 -0 -0 -0 -0 -0 -0 -0 -0 -0 -0 -0 -0 -0 -0 -0 -0 -0 -0 -0 -0 -0 -0 -0 -0 -0 -0 -0 -0 -0
-0 -0 -0 -0 -0 -0 -0 -0 -0 -0 -0 -0 -0 -0 -0 -0 -0 -0 -0 -0 -0 -0 -0 -0 -0 -0 -0 -0 -0 -0 -0 -0 -0 -0 -0 -0 -0 -0
-0 -0 -0 -0 -0 -0 -0 -0 -0 -0 -0 -0 -0 -0 -0 -0 -0 -0 -0 -0 -0 -0 -0 -0 -0 -0 -0 -0 -0 -0 -0 -0 -0 -0 -0 -0 -0 -0
-0 -0 -0 -0 -0 -0 -0 -0 -0 -0 -0 -0 -0 -0 -0 -0 -0 -0 -0 -0 -0 -0 -0 -0 -0 -0 -0 -0 -0 -0 -0 -0 -0 -0 -0 -0 -0 -0
-0 -0 -0 -0 -0 -0 -0 -0 -0 -0 -0 -0 -0 -0 -0 -0 -0 -0 -0 -0 -0 -0 -0 -0 -0 -0 -0 -0 -0 -0 -0 -0 -0 -0 -0 -0 -0 -0
-0 -0 -0 -0 -0 -0 -0 -0 -0 -0 -0 -0 -0 -0 -0 -0 -0 -0 -0 -0 -0 -0 -0 -0 -0 -0 -0 -0 -0 -0 -0 -0 -0 -0 -0 -0 -0 -0
-0 -0 -0 -0 -0 -0 -0 -0 -0 -0 -0 -0 -0 -0 -0 -0 -0 -0 -0 -0 -0 -0 -0 -0 -0 -0 -0 -0 -0 -0 -0 -0 -0 -0 -0 -0 -0 -0
-0 -0 -0 -0 -0 -0 -0 -0 -0 -0 -0 -0 -0 -0 -0 -0 -0 -0 -0 -0 -0 -0 -0 -0 -0 -0 -0 -0 -0 -0 -0 -0 -0 -0 -0 -0 -0 -0
-0 -0 -0 -0 -0 -0 -0 -0 -0 -0 -0 -0 -0 -0 -0 -0 -0 -0 -0 -0 -0 -0 -0 -0 -0 -0 -0 -0 -0 -0 -0 -0 -0 -0 -0 -0 -0 -0
Wind_Speed
21 22 23 20 21 17 16 15 15 17 15 15 17 13 7 8 8 8 8 9 11 15 19 19 18 17 19 20 20 20 20 22 22 23 24 25 25 24
20 21 22 19 20 20 19 22 19 20 21 19 20 18 11 14 14 10 7 11 14 18 18 18 17 19 21 22 23 23 24 24 24 22 24 26 26 26
15 15 18 15 24 25 28 26 28 26 31 26 23 17 18 16 18 12 7 8 14 18 16 15 19 20 21 22 22 22 21 21 22 22 22 22 24 26
15 16 22 25 28 28 30 31 25 25 26 29 27 29 26 23 18 15 12 11 11 10 13 18 20 21 21 22 21 20 21 21 23 24 26 28 28 30
11 13 12 12 16 20 20 22 22 22 24 27 30 29 28 27 28 25 25 32 34 34 14 16 16 27 29 31 32 32 33 34 35 35 36 37 39 40
18 18 20 20 20 22 21 26 24 22 19 19 22 24 25 24 25 31 34 27 28 27 28 23 23 23 24 27 30 31 32 31 32 32 36 36 38 37
19 19 19 17 20 24 23 24 21 18 19 21 23 25 26 26 26 25 21 27 23 24 22 23 24 24 28 28 30 29 29 31 30 29 32 32 33 34
20 22 23 24 22 23 25 22 22 20 20 22 26 27 29 27 24 23 21 26 30 28 31 29 28 29 28 29 29 29 30 31 31 32 33 35 35 35
17 16 16 20 19 17 16 17 20 23 25 27 28 28 29 28 29 31 31 30 31 33 32 31 29 28 27 29 29 29 30 31 32 32 32 32 33 33
16 17 17 19 20 18 17 18 20 22 24 24 24 25 26 27 27 28 29 28 26 29 29 29 27 28 27 27 29 29 30 31 32 33 33 34 33 33
14 15 17 19 22 18 17 18 19 19 17 15 16 19 23 25 25 25 28 27 29 29 30 28 28 27 28 28 27 28 29 30 32 33 33 34 34 34
16 17 20 20 20 18 18 18 17 17 16 17 18 20 22 23 24 24 27 26 27 29 28 26 26 26 28 26 26 27 29 30 30 31 33 34 33 33
16 16 16 16 14 14 16 18 15 14 15 16 18 20 22 22 23 22 22 22 22 23 26 23 26 25 26 28 26 27 28 28 29 30 32 34 34 33
12 12 14 15 15 15 13 12 14 15 16 17 18 20 20 20 20 19 19 20 20 21 24 24 25 27 27 27 29 28 28 29 30 32 34 34 33 32
11 13 13 15 13 14 13 13 13 15 16 16 17 18 19 19 19 19 19 20 22 24 25 24 25 25 25 28 29 30 31 29 32 34 35 34 33 32
10 9 11 11 11 13 14 15 15 15 15 15 16 18 18 19 21 21 21 21 23 25 26 27 27 25 27 27 27 31 32 33 34 34 34 33 32 31
10 11 13 13 14 14 16 17 17 17 18 19 19 19 20 21 22 22 22 23 25 27 29 29 27 24 25 26 29 30 32 33 33 35 33 34 33 33
13 14 16 16 16 16 17 18 19 19 20 20 21 22 22 23 24 24 24 25 26 27 28 30 29 26 27 27 26 31 31 32 32 33 33 35 35 33
15 16 16 17 17 18 18 19 20 20 20 21 23 23 23 24 24 25 25 26 28 27 27 28 30 29 31 34 28 26 33 32 32 34 34 34 34 34
17 17 17 17 18 18 18 19 19 21 22 22 23 24 25 24 25 26 27 27 28 29 29 29 30 29 30 32 32 32 31 32 32 34 35 33 31 28
18 18 19 20 20 20 20 20 21 22 22 23 24 25 26 26 26 27 28 28 29 29 31 31 32 31 29 28 31 32 32 31 30 33 34 33 31 28
19 20 21 21 21 22 22 22 23 24 24 25 26 27 27 27 27 28 28 28 29 30 31 30 31 31 29 30 33 34 33 32 33 33 31 27 26 27
21 20 21 22 23 23 23 23 23 25 25 26 26 27 28 28 28 27 27 27 28 29 31 31 31 30 30 31 33 35 32 34 34 33 29 26 25 23
Wind_Direction
225 224 236 243 250 260 259 263 273 277 272 279 284 273 259 273 258 266 248 267 234 222 222 227 230 237 240 244 246 250 255 252 253 255 252 249 251 255
232 228 237 241 249 255 260 263 278 283 281 283 281 285 278 287 289 286 241 213 221 218 226 233 242 241 239 241 243 246 251 253 253 257 256 254 259 264
223 206 233 237 254 261 264 271 271 278 275 278 277 286 290 292 292 291 269 246 224 228 231 238 237 241 245 249 252 257 259 260 260 265 267 269 270 279
170 234 247 253 257 262 265 268 275 272 274 270 277 277 284 289 295 295 296 298 297 285 261 252 251 252 256 257 262 269 273 280 288 290 295 298 296 298
222 200 220 242 261 269 273 273 276 276 274 273 278 280 283 286 289 296 297 292 291 293 264 258 274 305 306 307 308 307 306 304 303 302 301 301 301 302
258 257 257 261 267 266 268 271 276 278 278 278 280 284 287 291 294 291 292 300 302 305 308 316 317 319 318 316 317 315 317 314 315 313 309 310 309 305
261 262 263 269 270 268 272 275 276 275 273 280 282 285 288 291 293 299 300 302 309 314 317 319 319 320 321 322 322 323 328 325 322 320 321 321 320 317
268 269 266 271 276 275 274 276 278 276 278 278 281 284 287 293 297 299 299 302 301 309 308 306 312 314 316 321 327 325 326 325 324 324 322 320 319 318
277 276 271 276 276 278 283 278 283 286 285 282 282 286 288 292 293 293 297 300 301 304 306 305 311 312 316 322 325 323 327 327 327 326 326 324 324 324
285 283 281 281 283 278 278 284 290 293 293 294 294 294 295 297 297 299 299 300 304 308 310 305 310 311 317 321 326 327 328 328 328 328 327 326 325 324
295 295 289 287 289 284 281 284 291 297 308 310 309 309 311 311 311 305 299 302 302 308 315 311 313 313 317 321 324 327 329 329 328 327 327 327 328 326
298 303 300 295 296 293 286 281 280 287 297 301 312 313 316 317 322 316 305 307 307 307 318 315 316 317 316 323 327 331 331 331 331 332 332 331 330 329
297 305 312 308 307 305 297 292 292 299 297 302 304 311 314 320 325 329 328 324 320 320 323 322 322 322 321 320 325 330 332 333 334 334 334 332 331 330
306 309 324 310 319 317 314 302 299 303 304 306 311 313 316 321 327 335 341 342 342 336 334 332 325 325 321 321 321 328 330 331 332 332 332 332 331 331
308 328 315 320 332 328 325 315 315 313 312 315 316 317 320 324 327 327 333 338 340 340 341 337 332 331 330 323 322 326 326 331 333 332 332 332 331 332
339 339 334 334 332 333 330 331 331 327 321 320 321 323 328 330 332 333 330 331 331 332 338 336 335 334 328 331 329 327 330 326 331 333 333 333 334 334
328 320 315 313 318 324 325 331 330 329 326 326 326 330 328 329 331 333 333 331 328 327 328 333 335 336 337 331 328 331 330 331 332 333 334 332 332 332
338 326 319 321 324 323 324 326 327 326 326 327 326 326 326 326 326 328 329 328 327 328 329 331 329 326 325 330 336 330 331 330 333 334 333 331 331 334
337 334 331 328 328 327 327 325 325 329 335 330 330 328 327 325 327 327 327 326 327 329 331 333 332 329 324 321 327 335 330 330 331 331 332 331 329 331
346 342 341 340 338 337 336 335 334 333 332 331 330 329 328 327 328 327 328 327 326 327 329 331 331 330 327 324 325 329 333 329 329 329 330 332 331 332
334 334 332 331 330 331 331 331 331 330 330 329 328 328 329 328 328 328 328 328 327 327 325 326 328 328 327 328 325 327 330 333 333 331 331 330 330 332
327 326 326 327 326 326 327 327 326 326 326 326 326 327 327 328 326 327 328 327 328 328 325 326 328 330 329 327 325 326 328 331 332 332 331 331 331 330
326 326 325 326 326 326 327 327 326 325 325 325 326 326 327 327 328 328 329 330 329 329 328 326 327 328 328 327 326 326 329 330 332 333 334 337 335 336